• In Uzbekistan
  • List of Countries
  • For 7 days
  • Water Temperature
  • Satellite Maps
  • Weather Map
  • Weather Widgets
  • user-avatar
    Login

    Hourly Weather Ali Bayramli

    Today, 26 April, Wednesday

    Time Temperature Precipitation Wind Pressure Humidity
    00:00 +10°C° 0 mm 6 mps 771 mmHg 44%
    01:00 +10°C° 0 mm 5 mps 771 mmHg 44%
    02:00 +10°C° 0 mm 5 mps 772 mmHg 45%
    03:00 +10°C° 0 mm 4 mps 771 mmHg 45%
    04:00 +10°C° 0 mm 4 mps 772 mmHg 45%
    05:00 +10°C° 0 mm 4 mps 772 mmHg 46%
    06:00 +11°C° 0 mm 4 mps 773 mmHg 46%
    07:00 +12°C° 0 mm 4 mps 773 mmHg 44%
    08:00 +13°C° 0 mm 5 mps 773 mmHg 42%
    09:00 +14°C° 0 mm 5 mps 774 mmHg 39%
    10:00 +15°C° 0 mm 5 mps 773 mmHg 37%
    11:00 +15°C° 0 mm 5 mps 773 mmHg 35%
    12:00 +16°C° 0 mm 5 mps 773 mmHg 34%
    13:00 +16°C° 0 mm 5 mps 773 mmHg 34%
    14:00 +16°C° 0 mm 5 mps 773 mmHg 35%
    15:00 +16°C° 0 mm 5 mps 772 mmHg 35%
    16:00 +15°C° 0 mm 5 mps 772 mmHg 38%
    17:00 +14°C° 0 mm 5 mps 772 mmHg 42%
    18:00 +13°C° 0 mm 4 mps 772 mmHg 45%
    19:00 +12°C° 0 mm 3 mps 772 mmHg 51%
    20:00 +12°C° 0 mm 2 mps 773 mmHg 57%
    21:00 +9°C° 0 mm 2 mps 773 mmHg 62%
    22:00 +10°C° 0 mm 1 mps 773 mmHg 65%
    23:00 +9°C° 0 mm 1 mps 773 mmHg 68%

    Tomorrow, 27 April, Thursday

    Time Temperature Precipitation Wind Pressure Humidity
    00:00 +8°C° 0 mm 0 mps 773 mmHg 71%
    01:00 +8°C° 0 mm 0 mps 772 mmHg 71%
    02:00 +7°C° 0 mm 0 mps 772 mmHg 71%
    03:00 +7°C° 0 mm 0 mps 772 mmHg 72%
    04:00 +8°C° 0 mm 0 mps 772 mmHg 69%
    05:00 +9°C° 0 mm 0 mps 772 mmHg 65%
    06:00 +10°C° 0 mm 0 mps 772 mmHg 62%
    07:00 +11°C° 0 mm 0 mps 772 mmHg 55%
    08:00 +13°C° 0 mm 0 mps 772 mmHg 48%
    09:00 +15°C° 0 mm 0 mps 772 mmHg 41%
    10:00 +18°C° 0 mm 1 mps 772 mmHg 39%
    11:00 +18°C° 0 mm 2 mps 771 mmHg 37%
    12:00 +19°C° 0 mm 2 mps 771 mmHg 35%
    13:00 +19°C° 0 mm 3 mps 771 mmHg 34%
    14:00 +20°C° 0 mm 4 mps 770 mmHg 34%
    15:00 +20°C° 0 mm 5 mps 770 mmHg 33%
    16:00 +19°C° 0 mm 5 mps 770 mmHg 37%
    17:00 +18°C° 0 mm 4 mps 770 mmHg 41%
    18:00 +15°C° 0 mm 4 mps 770 mmHg 45%
    19:00 +14°C° 0 mm 3 mps 770 mmHg 49%
    20:00 +14°C° 0 mm 2 mps 770 mmHg 53%
    21:00 +13°C° 0 mm 1 mps 770 mmHg 58%
    22:00 +12°C° 0 mm 1 mps 770 mmHg 60%
    23:00 +12°C° 0 mm 1 mps 770 mmHg 62%

    Day after tomorrow, 28 April, Friday

    Time Temperature Precipitation Wind Pressure Humidity
    00:00 +11°C° 0 mm 1 mps 770 mmHg 64%
    01:00 +11°C° 0 mm 1 mps 769 mmHg 66%
    02:00 +11°C° 0 mm 1 mps 769 mmHg 67%
    03:00 +11°C° 0 mm 1 mps 769 mmHg 68%
    04:00 +11°C° 0 mm 1 mps 769 mmHg 66%
    05:00 +12°C° 0 mm 1 mps 769 mmHg 64%
    06:00 +13°C° 0 mm 1 mps 769 mmHg 63%
    07:00 +15°C° 0 mm 1 mps 769 mmHg 57%
    08:00 +16°C° 0 mm 1 mps 768 mmHg 52%
    09:00 +19°C° 0 mm 1 mps 768 mmHg 46%
    10:00 +19°C° 0 mm 2 mps 768 mmHg 43%
    11:00 +20°C° 0 mm 2 mps 767 mmHg 39%
    12:00 +21°C° 0 mm 3 mps 767 mmHg 35%
    13:00 +21°C° 0 mm 4 mps 766 mmHg 34%
    14:00 +22°C° 0 mm 4 mps 765 mmHg 33%
    15:00 +22°C° 0 mm 5 mps 765 mmHg 32%
    16:00 +20°C° 0 mm 4 mps 765 mmHg 35%
    17:00 +19°C° 0 mm 4 mps 765 mmHg 38%
    18:00 +18°C° 0 mm 3 mps 765 mmHg 41%
    19:00 +17°C° 0 mm 3 mps 765 mmHg 44%
    20:00 +16°C° 0 mm 2 mps 765 mmHg 47%
    21:00 +14°C° 0 mm 1 mps 765 mmHg 50%
    22:00 +14°C° 0 mm 1 mps 765 mmHg 51%
    23:00 +14°C° 0 mm 1 mps 764 mmHg 52%

    29 April, Saturday

    Time Temperature Precipitation Wind Pressure Humidity
    00:00 +13°C° 0 mm 1 mps 764 mmHg 53%
    01:00 +13°C° 0 mm 1 mps 763 mmHg 54%
    02:00 +13°C° 0 mm 1 mps 763 mmHg 55%
    03:00 +12°C° 0 mm 1 mps 763 mmHg 55%
    04:00 +13°C° 0 mm 1 mps 763 mmHg 54%
    05:00 +14°C° 0 mm 1 mps 763 mmHg 52%
    06:00 +15°C° 0 mm 1 mps 763 mmHg 51%
    07:00 +18°C° 0 mm 1 mps 763 mmHg 45%
    08:00 +20°C° 0 mm 1 mps 763 mmHg 39%
    09:00 +21°C° 0 mm 1 mps 763 mmHg 33%
    10:00 +23°C° 0 mm 2 mps 762 mmHg 31%
    11:00 +24°C° 0 mm 2 mps 762 mmHg 30%
    12:00 +25°C° 0 mm 2 mps 761 mmHg 28%
    13:00 +25°C° 0 mm 3 mps 761 mmHg 29%
    14:00 +25°C° 0 mm 4 mps 761 mmHg 31%
    15:00 +25°C° 0 mm 5 mps 760 mmHg 32%
    16:00 +22°C° 0 mm 5 mps 760 mmHg 37%
    17:00 +21°C° 0 mm 4 mps 760 mmHg 42%
    18:00 +19°C° 0 mm 3 mps 760 mmHg 47%
    19:00 +18°C° 0 mm 3 mps 761 mmHg 50%
    20:00 +17°C° 0 mm 2 mps 761 mmHg 53%
    21:00 +16°C° 0 mm 2 mps 761 mmHg 56%
    22:00 +16°C° 0 mm 1 mps 761 mmHg 57%
    23:00 +15°C° 0 mm 1 mps 761 mmHg 58%

    30 April, Sunday

    Time Temperature Precipitation Wind Pressure Humidity
    00:00 +15°C° 0 mm 1 mps 760 mmHg 59%
    01:00 +15°C° 0 mm 1 mps 760 mmHg 60%
    02:00 +14°C° 0 mm 1 mps 760 mmHg 61%
    03:00 +14°C° 0 mm 1 mps 760 mmHg 63%
    04:00 +15°C° 0 mm 1 mps 760 mmHg 61%
    05:00 +16°C° 0 mm 1 mps 760 mmHg 59%
    06:00 +16°C° 0 mm 1 mps 760 mmHg 58%
    07:00 +19°C° 0 mm 1 mps 760 mmHg 52%
    08:00 +21°C° 0 mm 1 mps 760 mmHg 46%
    09:00 +23°C° 0 mm 1 mps 760 mmHg 40%
    10:00 +24°C° 0 mm 2 mps 759 mmHg 38%
    11:00 +26°C° 0 mm 2 mps 759 mmHg 35%
    12:00 +27°C° 0 mm 2 mps 759 mmHg 33%
    13:00 +27°C° 0 mm 2 mps 758 mmHg 33%
    14:00 +28°C° 0 mm 3 mps 758 mmHg 32%
    15:00 +28°C° 0 mm 3 mps 758 mmHg 32%
    16:00 +27°C° 0 mm 3 mps 758 mmHg 36%
    17:00 +25°C° 0 mm 3 mps 758 mmHg 40%
    18:00 +24°C° 0 mm 3 mps 758 mmHg 44%
    19:00 +21°C° 0.1 mm 3 mps 758 mmHg 48%
    20:00 +20°C° 0.1 mm 2 mps 758 mmHg 52%
    21:00 +19°C° 0.1 mm 1 mps 759 mmHg 56%
    22:00 +19°C° 0.2 mm 1 mps 759 mmHg 58%
    23:00 +19°C° 0.2 mm 1 mps 759 mmHg 60%

    1 May, Monday

    Time Temperature Precipitation Wind Pressure Humidity
    00:00 +18°C° 0.2 mm 1 mps 758 mmHg 62%
    01:00 +18°C° 0 mm 1 mps 758 mmHg 62%
    02:00 +18°C° 0 mm 1 mps 758 mmHg 61%
    03:00 +18°C° 0 mm 1 mps 758 mmHg 61%
    04:00 +18°C° 0 mm 1 mps 758 mmHg 59%
    05:00 +19°C° 0 mm 1 mps 759 mmHg 58%
    06:00 +19°C° 0 mm 1 mps 759 mmHg 57%
    07:00 +21°C° 0 mm 1 mps 759 mmHg 52%
    08:00 +23°C° 0 mm 1 mps 759 mmHg 46%
    09:00 +24°C° 0 mm 1 mps 759 mmHg 41%
    10:00 +26°C° 0 mm 1 mps 759 mmHg 39%
    11:00 +27°C° 0 mm 1 mps 759 mmHg 36%
    12:00 +28°C° 0 mm 2 mps 759 mmHg 33%
    13:00 +29°C° 0 mm 3 mps 759 mmHg 33%
    14:00 +29°C° 0 mm 3 mps 758 mmHg 32%
    15:00 +29°C° 0 mm 4 mps 758 mmHg 31%
    16:00 +28°C° 0 mm 4 mps 758 mmHg 34%
    17:00 +26°C° 0 mm 4 mps 758 mmHg 37%
    18:00 +25°C° 0 mm 4 mps 759 mmHg 40%
    19:00 +22°C° 0 mm 4 mps 759 mmHg 42%
    20:00 +20°C° 0 mm 3 mps 759 mmHg 45%
    21:00 +19°C° 0 mm 3 mps 760 mmHg 47%
    22:00 +18°C° 0 mm 3 mps 760 mmHg 49%
    23:00 +18°C° 0 mm 2 mps 759 mmHg 50%
    Show more